This demonstration page uses our WeatherBlox Daily Observations layout. Learn more.

Left ArrowRight Arrow

39.51506, -84.39828

Hourly Observations for March 24, 2020

Temp ( °F °C ) Dew Point ( °F °C ) Humidity (%) Winds ( mph kmh ) Pressure ( in mb ) Visibility ( mi km ) Precip ( " mm )
12:15 am 00:15 Clear 38 3.4 36 2 91 91 Calm 30.22 1023 10 16.0934 0 0
12:35 am 00:35 Clear 37 2.7 35 1.8 94 94 N 3 6 30.22 1023 10 16.0934 0 0
12:55 am 00:55 Clear 36 2.4 35 1.7 95 95 N 3 6 30.22 1023 10 16.0934 0 0
1:15 am 01:15 Clear 35 1.7 34 1.2 97 97 Calm 30.22 1023 7 11.26538 0 0
1:35 am 01:35 Clear 36 2.2 35 1.6 96 96 Calm 30.22 1023 10 16.0934 0 0
1:55 am 01:55 Clear 36 2.1 35 1.5 96 96 N 3 6 30.21 1023 10 16.0934 0 0
2:15 am 02:15 Clear 33 0.6 32 0.2 97 97 Calm 30.21 1023 7 11.26538 0 0
2:35 am 02:35 Clear 36 2 34 1.1 94 94 NNE 3 6 30.22 1023 10 16.0934 0 0
2:55 am 02:55 Clear 34 0.9 32 0.2 95 95 Calm 30.21 1023 7 11.26538 0 0
3:15 am 03:15 Clear 34 1 33 0.7 98 98 Calm 30.21 1023 7 11.26538 0 0
3:35 am 03:35 Clear with Mist and Fog 34 0.9 33 0.6 98 98 Calm 30.22 1023 5 8.0467 0 0
3:55 am 03:55 Clear with Mist and Fog 33 0.3 32 0.2 99 99 Calm 30.22 1024 5 8.0467 0 0
4:15 am 04:15 Partly Cloudy with Mist and Fog 32 -0.1 31 -0.3 99 99 Calm 30.22 1023 4 6.43736 0 0
4:35 am 04:35 Cloudy with Mist and Fog 32 0.1 32 0 99 99 Calm 30.23 1024 5 8.0467 0 0
4:55 am 04:55 Cloudy with Mist and Fog 33 0.7 33 0.5 99 99 Calm 30.21 1023 7 11.26538 0 0
5:15 am 05:15 Cloudy with Mist and Fog 34 1.3 34 1.1 99 99 Calm 30.2 1023 7 11.26538 0 0
5:35 am 05:35 Partly Cloudy with Mist and Fog 34 1.3 34 1 98 98 Calm 30.2 1023 5 8.0467 0 0
5:55 am 05:55 Clear with Mist and Fog 34 1.1 34 0.9 99 99 Calm 30.19 1022 5 8.0467 0 0
6:15 am 06:15 Clear with Mist and Fog 34 1 33 0.8 99 99 N 3 6 30.19 1022 5 8.0467 0 0
6:35 am 06:35 Clear with Mist and Fog 34 1.1 34 0.9 99 99 Calm 30.2 1023 5 8.0467 0 0
6:55 am 06:55 Clear with Mist and Fog 33 0.6 33 0.4 99 99 Calm 30.21 1023 5 8.0467 0 0
7:15 am 07:15 Clear with Mist and Fog 32 0.2 32 0 99 99 Calm 30.21 1023 5 8.0467 0 0
7:35 am 07:35 Sunny with Mist and Fog 33 0.4 32 0.2 99 99 N 5 7 30.21 1023 4 6.43736 0 0
7:55 am 07:55 Sunny with Mist and Fog 33 0.8 33 0.7 99 99 N 3 6 30.22 1023 5 8.0467 0 0
8:15 am 08:15 Sunny with Mist and Fog 35 1.4 34 1.1 98 98 Calm 30.23 1024 5 8.0467 0 0
8:35 am 08:35 Sunny with Mist and Fog 36 2.4 36 2.1 98 98 Calm 30.22 1023 4 6.43736 0 0
8:55 am 08:55 Sunny with Mist and Fog 39 3.7 37 2.8 94 94 ENE 5 7 30.21 1023 7 11.26538 0 0
9:15 am 09:15 Sunny 40 4.4 37 2.5 88 88 ENE 6 9 30.19 1022 7 11.26538 0 0
9:35 am 09:35 Sunny 41 5.2 37 3 86 86 ENE 9 15 30.16 1021 7 11.26538 0 0
9:55 am 09:55 Sunny 43 6.3 38 3.1 80 80 ENE 13 20 30.14 1021 10 16.0934 0 0
10:15 am 10:15 Sunny 45 7.1 37 2.7 74 74 E 15 24 30.14 1021 10 16.0934 0 0
10:35 am 10:35 Mostly Cloudy 46 7.8 37 2.9 71 71 E 10 17 30.13 1020 10 16.0934 0 0
10:55 am 10:55 Partly Cloudy 46 8 38 3.3 72 72 E 9 15 30.13 1020 10 16.0934 0 0
11:15 am 11:15 Cloudy 47 8.1 38 3.4 73 73 E 9 15 30.13 1020 10 16.0934 0 0
11:35 am 11:35 Cloudy 47 8.2 38 3.4 72 72 E 9 15 30.13 1020 10 16.0934 0 0
11:55 am 11:55 Mostly Cloudy 49 9.2 39 4.1 71 71 ENE 8 13 30.13 1020 10 16.0934 0 0
12:15 pm 12:15 Cloudy 48 9.1 39 3.9 70 70 ENE 8 13 30.11 1020 10 16.0934 0 0
12:35 pm 12:35 Cloudy 49 9.4 39 4 69 69 E 9 15 30.1 1019 10 16.0934 0 0
12:55 pm 12:55 Mostly Cloudy 50 10 40 4.4 68 68 ENE 7 11 30.08 1019 10 16.0934 0 0
1:15 pm 13:15 Mostly Cloudy 50 10 39 4.1 67 67 ESE 10 17 30.07 1018 10 16.0934 0 0
1:35 pm 13:35 Mostly Cloudy 51 10.6 40 4.4 66 66 E 8 13 30.07 1018 10 16.0934 0 0
1:55 pm 13:55 Partly Cloudy 51 10.8 40 4.6 66 66 E 6 9 30.06 1018 10 16.0934 0 0
2:15 pm 14:15 Mostly Cloudy 52 10.9 40 4.4 64 64 E 5 7 30.05 1017 10 16.0934 0 0
2:35 pm 14:35 Sunny 52 11 40 4.5 65 65 E 8 13 30.04 1017 10 16.0934 0 0
2:55 pm 14:55 Sunny 52 11.1 40 4.5 64 64 ENE 9 15 30.03 1017 10 16.0934 0 0
3:15 pm 15:15 Sunny 52 11.3 40 4.6 64 64 E 8 13 30.02 1016 10 16.0934 0 0
3:35 pm 15:35 Sunny 52 11.2 40 4.6 64 64 E 10 17 30 1016 10 16.0934 0 0
3:55 pm 15:55 Sunny 52 11.3 40 4.6 64 64 E 9 15 30 1016 10 16.0934 0 0
4:15 pm 16:15 Partly Cloudy 52 11.1 40 4.6 65 65 E 10 17 29.99 1015 10 16.0934 0 0
4:35 pm 16:35 Cloudy 52 11.1 40 4.5 64 64 E 9 15 29.99 1015 10 16.0934 0 0
4:55 pm 16:55 Cloudy 52 11 40 4.7 65 65 E 10 17 30 1016 10 16.0934 0 0
5:15 pm 17:15 Cloudy 52 11 40 4.7 65 65 NE 8 13 29.99 1015 10 16.0934 0 0
5:35 pm 17:35 Cloudy 51 10.7 41 4.8 67 67 NE 12 19 29.98 1015 10 16.0934 0 0
5:55 pm 17:55 Cloudy 51 10.5 40 4.7 68 68 ENE 12 19 29.97 1015 10 16.0934 0 0
6:15 pm 18:15 Cloudy 50 10.2 40 4.7 69 69 ENE 12 19 29.97 1015 10 16.0934 0 0
6:35 pm 18:35 Cloudy 50 10.1 40 4.7 69 69 ENE 10 17 29.97 1015 10 16.0934 0 0
6:55 pm 18:55 Cloudy 50 9.9 41 4.8 71 71 NE 10 17 29.97 1015 10 16.0934 0 0
7:15 pm 19:15 Cloudy 49 9.6 40 4.5 71 71 NNE 13 20 29.96 1015 10 16.0934 0 0
7:35 pm 19:35 Cloudy 49 9.3 40 4.3 71 71 NNE 12 19 29.95 1014 10 16.0934 0 0
7:55 pm 19:55 Cloudy 48 9.1 39 4 71 71 NNE 13 20 29.95 1014 10 16.0934 0 0
8:15 pm 20:15 Cloudy 48 9 39 3.7 70 70 NNE 8 13 29.98 1015 10 16.0934 0 0
8:35 pm 20:35 Cloudy with Light Rain 48 8.8 39 3.8 71 71 NNE 9 15 29.98 1015 10 16.0934 0 0
8:55 pm 20:55 Cloudy with Drizzle 47 8.2 39 4.1 76 76 NNE 13 20 29.97 1015 10 16.0934 0 0
9:15 pm 21:15 Cloudy with Drizzle 46 8 40 4.2 77 77 NNE 12 19 29.97 1015 10 16.0934 0 0
9:35 pm 21:35 Cloudy with Light Rain 46 7.9 40 4.2 78 78 NE 12 19 29.96 1015 10 16.0934 0 0
9:55 pm 21:55 Cloudy with Drizzle 46 7.8 39 4.1 78 78 NNE 13 20 29.95 1014 10 16.0934 0 0
10:15 pm 22:15 Cloudy 46 7.7 39 3.8 77 77 NE 13 20 29.95 1014 10 16.0934 0 0
10:35 pm 22:35 Cloudy with Light Rain 46 7.6 39 3.7 77 77 NE 9 15 29.96 1014 10 16.0934 0 0
10:55 pm 22:55 Cloudy with Rain 44 6.9 40 4.4 84 84 NNE 8 13 29.95 1014 7 11.26538 0 0
11:15 pm 23:15 Cloudy with Rain 44 6.5 41 4.8 89 89 N 5 7 29.95 1014 5 8.0467 0 0
11:35 pm 23:35 Cloudy with Light Rain 43 6.3 41 5.1 92 92 NNE 8 13 29.93 1013 5 8.0467 0 0
11:55 pm 23:55 Cloudy with Light Rain 43 6.2 41 5.1 93 93 NNE 6 9 29.93 1013 5 8.0467 0 0

Powered by AerisWeather